TimeEDT,TemperatureF,Dew PointF,Humidity,Sea Level PressureIn,VisibilityMPH,Wind Direction,Wind SpeedMPH,Gust SpeedMPH,PrecipitationIn,Events,Conditions,WindDirDegrees,DateUTC
12:53 AM,73.0,70.0,90,30.06,10.0,NNE,3.5,-,N/A,,Clear,20,2013-04-02 04:53:00
1:31 AM,73.4,69.8,88,30.05,10.0,Calm,Calm,-,N/A,,Partly Cloudy,0,2013-04-02 05:31:00
1:53 AM,73.0,70.0,90,30.05,10.0,NNE,3.5,-,N/A,,Partly Cloudy,20,2013-04-02 05:53:00
2:53 AM,72.0,70.0,93,30.04,8.0,Calm,Calm,-,N/A,,Clear,0,2013-04-02 06:53:00
3:04 AM,71.6,69.8,94,30.04,10.0,Calm,Calm,-,N/A,,Partly Cloudy,0,2013-04-02 07:04:00
3:53 AM,72.0,70.0,93,30.02,10.0,NNE,3.5,-,N/A,,Partly Cloudy,30,2013-04-02 07:53:00
4:53 AM,72.0,69.1,91,30.01,10.0,Calm,Calm,-,N/A,,Clear,0,2013-04-02 08:53:00
5:53 AM,71.1,68.0,90,30.02,10.0,NE,3.5,-,N/A,,Clear,40,2013-04-02 09:53:00
6:53 AM,70.0,68.0,93,30.04,10.0,Calm,Calm,-,N/A,,Clear,0,2013-04-02 10:53:00
7:53 AM,71.1,69.1,93,30.06,10.0,North,3.5,-,N/A,,Partly Cloudy,10,2013-04-02 11:53:00
8:53 AM,75.0,69.1,82,30.09,10.0,North,6.9,-,N/A,,Partly Cloudy,360,2013-04-02 12:53:00
9:53 AM,77.0,68.0,74,30.09,10.0,NNE,5.8,-,N/A,,Partly Cloudy,20,2013-04-02 13:53:00
10:53 AM,79.0,66.9,66,30.10,10.0,North,6.9,-,N/A,,Clear,360,2013-04-02 14:53:00
11:53 AM,80.1,66.9,64,30.10,10.0,North,5.8,-,N/A,,Clear,10,2013-04-02 15:53:00
12:53 PM,81.0,68.0,65,30.10,10.0,North,9.2,-,N/A,,Clear,350,2013-04-02 16:53:00
1:53 PM,82.0,66.0,58,30.08,10.0,North,9.2,-,N/A,,Partly Cloudy,360,2013-04-02 17:53:00
2:53 PM,82.0,66.9,60,30.05,10.0,North,4.6,-,N/A,,Partly Cloudy,350,2013-04-02 18:53:00
3:53 PM,80.1,66.9,64,30.04,10.0,North,10.4,-,N/A,,Scattered Clouds,10,2013-04-02 19:53:00
4:53 PM,80.1,63.0,56,30.03,10.0,NNE,5.8,-,N/A,,Scattered Clouds,30,2013-04-02 20:53:00
5:53 PM,80.1,64.0,58,30.02,10.0,North,4.6,-,N/A,,Partly Cloudy,10,2013-04-02 21:53:00
6:53 PM,78.1,64.0,62,30.03,10.0,NNE,4.6,-,N/A,,Partly Cloudy,20,2013-04-02 22:53:00
7:53 PM,73.9,66.0,76,30.03,10.0,North,4.6,-,N/A,,Partly Cloudy,350,2013-04-02 23:53:00
8:53 PM,73.0,66.0,79,30.04,10.0,North,5.8,-,N/A,,Clear,360,2013-04-03 00:53:00
9:53 PM,73.0,66.9,81,30.06,10.0,North,3.5,-,N/A,,Clear,360,2013-04-03 01:53:00
10:53 PM,73.0,68.0,84,30.07,10.0,NE,4.6,-,N/A,,Clear,40,2013-04-03 02:53:00
11:53 PM,73.0,68.0,84,30.07,10.0,NE,5.8,-,N/A,,Clear,50,2013-04-03 03:53:00